• în România
  • Lista ţărilor
  • Pe 7 zile
  • Temperatura apei
  • Hartă satelitară
  • Meteo pe hartă
  • Widget-uri
  • user-avatar
    Intrare

    Meteo pe oră la Melbourne

    Astăzi, 30 Martie, Joi

    Timp Temperatura Precipitaţii Vânt Presiune Umiditate
    00:00 +12°C° 1,1 mm 3 m/s 757 mmHg 89%
    01:00 +12°C° 1,1 mm 2 m/s 758 mmHg 91%
    02:00 +12°C° 0,1 mm 2 m/s 758 mmHg 91%
    03:00 +11°C° 0,1 mm 3 m/s 758 mmHg 91%
    04:00 +11°C° 0 mm 3 m/s 758 mmHg 90%
    05:00 +10°C° 0 mm 3 m/s 759 mmHg 90%
    06:00 +10°C° 0 mm 3 m/s 760 mmHg 90%
    07:00 +10°C° 0 mm 3 m/s 760 mmHg 90%
    08:00 +11°C° 0 mm 3 m/s 761 mmHg 82%
    09:00 +13°C° 0 mm 3 m/s 761 mmHg 74%
    10:00 +14°C° 0 mm 4 m/s 761 mmHg 66%
    11:00 +15°C° 0,1 mm 4 m/s 761 mmHg 62%
    12:00 +17°C° 0,1 mm 4 m/s 761 mmHg 57%
    13:00 +18°C° 0,1 mm 4 m/s 761 mmHg 52%
    14:00 +17°C° 0,1 mm 4 m/s 761 mmHg 53%
    15:00 +17°C° 0,1 mm 4 m/s 762 mmHg 54%
    16:00 +17°C° 0,1 mm 4 m/s 762 mmHg 55%
    17:00 +15°C° 0,1 mm 4 m/s 762 mmHg 61%
    18:00 +13°C° 0,1 mm 3 m/s 763 mmHg 68%
    19:00 +12°C° 0,1 mm 3 m/s 764 mmHg 74%
    20:00 +11°C° 0 mm 3 m/s 764 mmHg 77%
    21:00 +12°C° 0 mm 2 m/s 764 mmHg 81%
    22:00 +10°C° 0 mm 2 m/s 765 mmHg 84%
    23:00 +10°C° 0 mm 2 m/s 764 mmHg 83%

    Mâine, 31 Martie, Vineri

    Timp Temperatura Precipitaţii Vânt Presiune Umiditate
    00:00 +10°C° 0 mm 2 m/s 764 mmHg 83%
    01:00 +12°C° 0 mm 2 m/s 764 mmHg 82%
    02:00 +10°C° 0 mm 2 m/s 764 mmHg 84%
    03:00 +10°C° 0 mm 2 m/s 764 mmHg 85%
    04:00 +11°C° 0 mm 1 m/s 763 mmHg 87%
    05:00 +10°C° 0 mm 2 m/s 764 mmHg 87%
    06:00 +9°C° 0 mm 2 m/s 764 mmHg 88%
    07:00 +9°C° 0 mm 2 m/s 764 mmHg 88%
    08:00 +12°C° 0 mm 2 m/s 765 mmHg 79%
    09:00 +14°C° 0 mm 2 m/s 765 mmHg 71%
    10:00 +15°C° 0 mm 2 m/s 765 mmHg 62%
    11:00 +16°C° 0 mm 2 m/s 764 mmHg 58%
    12:00 +17°C° 0 mm 2 m/s 764 mmHg 55%
    13:00 +18°C° 0 mm 2 m/s 764 mmHg 51%
    14:00 +18°C° 0 mm 2 m/s 763 mmHg 51%
    15:00 +18°C° 0 mm 2 m/s 763 mmHg 52%
    16:00 +18°C° 0 mm 2 m/s 762 mmHg 52%
    17:00 +16°C° 0 mm 2 m/s 762 mmHg 60%
    18:00 +14°C° 0 mm 1 m/s 763 mmHg 69%
    19:00 +12°C° 0 mm 1 m/s 763 mmHg 78%
    20:00 +12°C° 0 mm 1 m/s 763 mmHg 82%
    21:00 +11°C° 0 mm 1 m/s 763 mmHg 86%
    22:00 +10°C° 0 mm 1 m/s 764 mmHg 90%
    23:00 +10°C° 0 mm 1 m/s 763 mmHg 90%

    Poimâine, 1 Aprilie, Sâmbătă

    Timp Temperatura Precipitaţii Vânt Presiune Umiditate
    00:00 +10°C° 0 mm 1 m/s 763 mmHg 89%
    01:00 +9°C° 0 mm 2 m/s 763 mmHg 88%
    02:00 +9°C° 0 mm 2 m/s 763 mmHg 88%
    03:00 +9°C° 0 mm 2 m/s 762 mmHg 89%
    04:00 +9°C° 0 mm 2 m/s 762 mmHg 89%
    05:00 +9°C° 0 mm 2 m/s 762 mmHg 90%
    06:00 +9°C° 0 mm 3 m/s 763 mmHg 91%
    07:00 +10°C° 0 mm 3 m/s 763 mmHg 92%
    08:00 +11°C° 0,1 mm 3 m/s 764 mmHg 85%
    09:00 +13°C° 0,1 mm 4 m/s 764 mmHg 78%
    10:00 +15°C° 0,1 mm 4 m/s 765 mmHg 71%
    11:00 +15°C° 0 mm 4 m/s 765 mmHg 65%
    12:00 +15°C° 0 mm 4 m/s 765 mmHg 60%
    13:00 +17°C° 0 mm 4 m/s 765 mmHg 55%
    14:00 +17°C° 0 mm 4 m/s 765 mmHg 54%
    15:00 +17°C° 0 mm 4 m/s 765 mmHg 54%
    16:00 +15°C° 0 mm 4 m/s 766 mmHg 54%
    17:00 +14°C° 0 mm 4 m/s 766 mmHg 59%
    18:00 +13°C° 0 mm 3 m/s 767 mmHg 65%
    19:00 +12°C° 0 mm 3 m/s 767 mmHg 71%
    20:00 +12°C° 0 mm 3 m/s 768 mmHg 72%
    21:00 +12°C° 0 mm 3 m/s 768 mmHg 74%
    22:00 +13°C° 0 mm 2 m/s 769 mmHg 76%
    23:00 +12°C° 0 mm 2 m/s 769 mmHg 77%

    2 Aprilie, Duminică

    Timp Temperatura Precipitaţii Vânt Presiune Umiditate
    00:00 +12°C° 0 mm 2 m/s 769 mmHg 78%
    01:00 +12°C° 0 mm 2 m/s 769 mmHg 80%
    02:00 +12°C° 0 mm 2 m/s 769 mmHg 81%
    03:00 +10°C° 0 mm 2 m/s 769 mmHg 82%
    04:00 +10°C° 0 mm 2 m/s 769 mmHg 84%
    05:00 +10°C° 0 mm 2 m/s 769 mmHg 83%
    06:00 +10°C° 0 mm 2 m/s 770 mmHg 83%
    07:00 +10°C° 0 mm 2 m/s 770 mmHg 83%
    08:00 +13°C° 0 mm 2 m/s 771 mmHg 76%
    09:00 +14°C° 0 mm 2 m/s 771 mmHg 69%
    10:00 +16°C° 0 mm 3 m/s 771 mmHg 61%
    11:00 +16°C° 0,1 mm 3 m/s 771 mmHg 59%
    12:00 +17°C° 0,1 mm 3 m/s 771 mmHg 57%
    13:00 +17°C° 0,1 mm 3 m/s 771 mmHg 55%
    14:00 +17°C° 0,1 mm 3 m/s 771 mmHg 55%
    15:00 +17°C° 0,1 mm 3 m/s 771 mmHg 56%
    16:00 +17°C° 0,1 mm 3 m/s 770 mmHg 56%
    17:00 +16°C° 0 mm 3 m/s 771 mmHg 63%
    18:00 +13°C° 0 mm 3 m/s 772 mmHg 69%
    19:00 +12°C° 0 mm 3 m/s 772 mmHg 75%
    20:00 +12°C° 0 mm 3 m/s 772 mmHg 77%
    21:00 +12°C° 0 mm 2 m/s 773 mmHg 79%
    22:00 +12°C° 0 mm 2 m/s 773 mmHg 81%
    23:00 +10°C° 0 mm 2 m/s 773 mmHg 82%

    3 Aprilie, Luni

    Timp Temperatura Precipitaţii Vânt Presiune Umiditate
    00:00 +10°C° 0 mm 2 m/s 772 mmHg 83%
    01:00 +9°C° 0 mm 2 m/s 772 mmHg 85%
    02:00 +9°C° 0 mm 2 m/s 772 mmHg 86%
    03:00 +9°C° 0 mm 2 m/s 772 mmHg 87%
    04:00 +8°C° 0 mm 2 m/s 772 mmHg 88%
    05:00 +8°C° 0 mm 2 m/s 772 mmHg 89%
    06:00 +8°C° 0 mm 2 m/s 773 mmHg 90%
    07:00 +8°C° 0 mm 2 m/s 773 mmHg 90%
    08:00 +10°C° 0 mm 2 m/s 773 mmHg 79%
    09:00 +14°C° 0 mm 2 m/s 773 mmHg 67%
    10:00 +16°C° 0 mm 2 m/s 773 mmHg 55%
    11:00 +18°C° 0 mm 2 m/s 772 mmHg 51%
    12:00 +20°C° 0 mm 1 m/s 772 mmHg 46%
    13:00 +22°C° 0 mm 1 m/s 771 mmHg 42%
    14:00 +21°C° 0 mm 1 m/s 771 mmHg 42%
    15:00 +20°C° 0 mm 2 m/s 770 mmHg 43%
    16:00 +20°C° 0 mm 2 m/s 770 mmHg 44%
    17:00 +18°C° 0 mm 2 m/s 770 mmHg 54%
    18:00 +16°C° 0 mm 2 m/s 770 mmHg 63%
    19:00 +14°C° 0 mm 2 m/s 771 mmHg 73%
    20:00 +13°C° 0 mm 2 m/s 771 mmHg 78%
    21:00 +12°C° 0 mm 2 m/s 771 mmHg 82%
    22:00 +12°C° 0 mm 2 m/s 771 mmHg 87%
    23:00 +11°C° 0 mm 1 m/s 771 mmHg 89%

    4 Aprilie, Marţi

    Timp Temperatura Precipitaţii Vânt Presiune Umiditate
    00:00 +11°C° 0 mm 1 m/s 771 mmHg 91%
    01:00 +10°C° 0 mm 1 m/s 770 mmHg 93%
    02:00 +10°C° 0 mm 1 m/s 770 mmHg 93%
    03:00 +10°C° 0 mm 1 m/s 770 mmHg 93%
    04:00 +9°C° 0 mm 1 m/s 770 mmHg 93%
    05:00 +10°C° 0 mm 1 m/s 770 mmHg 90%
    06:00 +11°C° 0 mm 1 m/s 771 mmHg 87%
    07:00 +11°C° 0 mm 1 m/s 771 mmHg 83%
    08:00 +14°C° 0 mm 1 m/s 771 mmHg 72%
    09:00 +18°C° 0 mm 1 m/s 771 mmHg 61%
    10:00 +21°C° 0 mm 1 m/s 771 mmHg 49%
    11:00 +22°C° 0 mm 1 m/s 771 mmHg 44%
    12:00 +24°C° 0 mm 1 m/s 770 mmHg 40%
    13:00 +25°C° 0 mm 1 m/s 770 mmHg 35%
    14:00 +25°C° 0 mm 1 m/s 769 mmHg 35%
    15:00 +25°C° 0 mm 1 m/s 769 mmHg 36%
    16:00 +25°C° 0 mm 1 m/s 768 mmHg 36%
    17:00 +21°C° 0 mm 2 m/s 768 mmHg 44%
    18:00 +19°C° 0 mm 2 m/s 769 mmHg 52%
    19:00 +17°C° 0 mm 2 m/s 769 mmHg 60%
    20:00 +16°C° 0 mm 2 m/s 769 mmHg 64%
    21:00 +15°C° 0 mm 2 m/s 769 mmHg 68%
    22:00 +15°C° 0 mm 2 m/s 769 mmHg 72%
    23:00 +15°C° 0 mm 2 m/s 768 mmHg 72%
    Arată mai mult